{"data":{"norad_id":68458,"intl_designator":"2026-067AU","name":"SAL-E","alt_names":[],"object_type":"PAYLOAD","status":"ACTIVE","operator":null,"country":"US","launch_date":"2026-03-30","launch_site_code":"AFWTR","launch_vehicle":null,"mission":null,"orbit_class":"UNKNOWN","rcs_meters":null,"size_class":null,"mass_kg":null,"dimensions":null,"purposes":[],"wikipedia_slug":null,"has_3d_model":false,"image_url":null,"decayed_at":null,"tle_current":{"epoch":"2026-09-20T03:34:10.439616Z","epoch_age_seconds":99262,"freshness":"FRESH","line1":"1 68458U 26067AU  26263.14873194  .00005523  00000+0  26744-3 0  9998","line2":"2 68458  97.4581 220.0618 0007728  99.5751 260.6357 15.18940262 26348","mean_motion":15.18940262,"eccentricity":0.0007728,"inclination_deg":97.4581,"raan_deg":220.0618,"arg_perigee_deg":99.5751,"mean_anomaly_deg":260.6357,"bstar":0.00026744,"rev_number":2634,"period_min":94.802938339651,"perigee_km":503.71971653224,"apogee_km":514.36454059335,"semimajor_km":6887.1791285628,"source":"CELESTRAK","updated_at":"2026-09-20T09:00:24.210946Z"}}}